,,,PA_Meas_PMT16A,,PR_Meas_QMR101_102,,RH_Meas_QMH101,,SR_Meas_QMS101,,TA_Meas_QMH101,,GenWind,,GenWind,
date,time,status,PA,status,PR,status,RH,status,SR,status,TA,status,DirAvg,status,SpdAvg,
2011-11-02, 00:00:04,VALID,1001.02,VALID,0,VALID,92.1798,VALID,0,VALID,24.638,VALID,75,VALID,0.361328,
2011-11-02, 00:01:04,VALID,1001.01,VALID,0,VALID,92.0196,VALID,0,VALID,24.638,VALID,75,VALID,0.180078,
2011-11-02, 00:02:04,VALID,1000.97,VALID,0,VALID,91.9204,VALID,0,VALID,24.6166,VALID,75,VALID,0.367969,
2011-11-02, 00:03:04,VALID,1000.97,VALID,0,VALID,91.7983,VALID,0,VALID,24.5777,VALID,42,VALID,0.328125,
2011-11-02, 00:04:04,VALID,1000.95,VALID,0,VALID,91.7449,VALID,0.0815089,VALID,24.5174,VALID,33,VALID,0.592188,
2011-11-02, 00:05:04,VALID,1000.94,VALID,0,VALID,91.8441,VALID,0.0815089,VALID,24.4804,VALID,33,VALID,0.407422,
2011-11-02, 00:06:04,VALID,1000.93,VALID,0,VALID,92.1035,VALID,0,VALID,24.422,VALID,33,VALID,0.442187,
2011-11-02, 00:07:04,VALID,1000.89,VALID,0,VALID,92.3018,VALID,0.0815089,VALID,24.3617,VALID,33,VALID,0.419141,
2011-11-02, 00:08:04,VALID,1000.91,VALID,0,VALID,92.5917,VALID,0,VALID,24.3033,VALID,33,VALID,0.463281,
2011-11-02, 00:09:04,VALID,1000.88,VALID,0,VALID,92.7519,VALID,0.0815089,VALID,24.2857,VALID,33,VALID,0.292188,
2011-11-02, 00:10:04,VALID,1000.91,VALID,0,VALID,92.9732,VALID,0,VALID,24.2662,VALID,33,VALID,0.435156,
2011-11-02, 00:11:04,VALID,1000.89,VALID,0,VALID,93.0266,VALID,0.0815089,VALID,24.2255,VALID,33,VALID,0.416797,
2011-11-02, 00:12:04,VALID,1000.87,VALID,0,VALID,93.347,VALID,0.0815089,VALID,24.2273,VALID,33,VALID,0.290234,
2011-11-02, 00:13:04,VALID,1000.85,VALID,0,VALID,93.4996,VALID,0.0815089,VALID,24.206,VALID,33,VALID,0.380469,
2011-11-02, 00:14:04,VALID,1000.84,VALID,0,VALID,93.3546,VALID,0.0815089,VALID,24.2273,VALID,33,VALID,0.363281,
2011-11-02, 00:15:04,VALID,1000.85,VALID,0,VALID,93.2936,VALID,0,VALID,24.2078,VALID,33,VALID,0.285937,
2011-11-02, 00:16:04,VALID,1000.83,VALID,0,VALID,93.4919,VALID,0.0815089,VALID,24.1865,VALID,33,VALID,0.501562,
2011-11-02, 00:17:04,VALID,1000.83,VALID,0,VALID,93.6064,VALID,0.0815089,VALID,24.1671,VALID,33,VALID,0.391406,
2011-11-02, 00:18:04,VALID,1000.82,VALID,0,VALID,93.5377,VALID,0.0815089,VALID,24.1865,VALID,33,VALID,0.252344,
2011-11-02, 00:19:04,VALID,1000.87,VALID,0,VALID,93.469,VALID,0,VALID,24.1902,VALID,33,VALID,0.166797,
2011-11-02, 00:20:04,VALID,1000.85,VALID,0,VALID,93.5301,VALID,0,VALID,24.1707,VALID,33,VALID,0.361328,
2011-11-02, 00:21:04,VALID,1000.83,VALID,0,VALID,93.4614,VALID,0,VALID,24.13,VALID,33,VALID,0.303906,
2011-11-02, 00:22:04,VALID,1000.87,VALID,0,VALID,93.4538,VALID,0,VALID,24.1105,VALID,33,VALID,0.373437,
2011-11-02, 00:23:04,VALID,1000.85,VALID,0,VALID,93.5148,VALID,0,VALID,24.1318,VALID,33,VALID,0.236719,
2011-11-02, 00:24:04,VALID,1000.85,VALID,0,VALID,93.5987,VALID,0,VALID,24.1123,VALID,33,VALID,0,
2011-11-02, 00:25:04,VALID,1000.85,VALID,0,VALID,93.82,VALID,0,VALID,24.0716,VALID,33,VALID,0.123438,
2011-11-02, 00:26:04,VALID,1000.85,VALID,0,VALID,93.9191,VALID,0,VALID,24.1105,VALID,33,VALID,0.0164062,
2011-11-02, 00:27:04,VALID,1000.89,VALID,0,VALID,93.8429,VALID,0,VALID,24.1123,VALID,33,VALID,0,
2011-11-02, 00:28:04,VALID,1000.89,VALID,0,VALID,93.9115,VALID,0,VALID,24.1318,VALID,33,VALID,0.118359,
2011-11-02, 00:29:04,VALID,1000.92,VALID,0,VALID,93.9115,VALID,0,VALID,24.1123,VALID,33,VALID,0,
2011-11-02, 00:30:04,VALID,1000.95,VALID,0,VALID,94.0107,VALID,0,VALID,24.1318,VALID,33,VALID,0,
2011-11-02, 00:31:04,VALID,1000.94,VALID,0,VALID,93.9954,VALID,0,VALID,24.13,VALID,33,VALID,0.192578,
2011-11-02, 00:32:04,VALID,1000.95,VALID,0,VALID,93.9573,VALID,0,VALID,24.1105,VALID,33,VALID,0.009375,
2011-11-02, 00:33:04,VALID,1000.97,VALID,0,VALID,93.9649,VALID,0,VALID,24.1105,VALID,33,VALID,0,
2011-11-02, 00:34:04,VALID,1000.99,VALID,0,VALID,93.9954,VALID,0.0815089,VALID,24.1105,VALID,37,VALID,0.396875,
2011-11-02, 00:35:04,VALID,1000.96,VALID,0,VALID,94.1099,VALID,0.0815089,VALID,24.0892,VALID,39,VALID,0.259375,
2011-11-02, 00:36:04,VALID,1000.96,VALID,0,VALID,94.1328,VALID,0,VALID,24.091,VALID,39,VALID,0.112891,
2011-11-02, 00:37:04,VALID,1000.98,VALID,0,VALID,94.0946,VALID,0,VALID,24.0697,VALID,39,VALID,0,
2011-11-02, 00:38:04,VALID,1000.98,VALID,0,VALID,94.1022,VALID,0.0815089,VALID,24.0716,VALID,39,VALID,0.132813,
2011-11-02, 00:39:04,VALID,1000.99,VALID,0,VALID,94.1938,VALID,0.0815089,VALID,24.0521,VALID,39,VALID,0.252734,
2011-11-02, 00:40:04,VALID,1000.98,VALID,0,VALID,94.3006,VALID,0.0815089,VALID,24.0308,VALID,39,VALID,0.354688,
2011-11-02, 00:41:04,VALID,1000.94,VALID,0,VALID,94.3845,VALID,0,VALID,24.0521,VALID,39,VALID,0.208594,
2011-11-02, 00:42:04,VALID,1000.91,VALID,0,VALID,94.4989,VALID,0.0815089,VALID,24.0114,VALID,39,VALID,0.320703,
2011-11-02, 00:43:04,VALID,1000.9,VALID,0,VALID,94.5523,VALID,0.0815089,VALID,24.0114,VALID,39,VALID,0.345313,
2011-11-02, 00:44:04,VALID,1000.88,VALID,0,VALID,94.5752,VALID,0.0815089,VALID,24.0326,VALID,39,VALID,0.307031,
2011-11-02, 00:45:04,VALID,1000.89,VALID,0,VALID,94.6515,VALID,0,VALID,24.0132,VALID,39,VALID,0.227734,
2011-11-02, 00:46:04,VALID,1000.86,VALID,0,VALID,94.7965,VALID,0.0815089,VALID,24.0521,VALID,41,VALID,0.3875,
2011-11-02, 00:47:04,VALID,1000.89,VALID,0,VALID,94.6591,VALID,0.0815089,VALID,24.0521,VALID,41,VALID,0,
2011-11-02, 00:48:04,VALID,1000.89,VALID,0,VALID,94.6363,VALID,0,VALID,24.0114,VALID,41,VALID,0.0515625,
2011-11-02, 00:49:04,VALID,1000.88,VALID,0,VALID,94.6744,VALID,0,VALID,23.9742,VALID,41,VALID,0.142969,
2011-11-02, 00:50:04,VALID,1000.89,VALID,0,VALID,94.6973,VALID,0,VALID,24.015,VALID,41,VALID,0.114063,
2011-11-02, 00:51:04,VALID,1000.88,VALID,0,VALID,94.7049,VALID,0,VALID,24.015,VALID,41,VALID,0.485156,
2011-11-02, 00:52:04,VALID,1000.88,VALID,0,VALID,94.8346,VALID,0,VALID,24.0132,VALID,41,VALID,0.489062,
2011-11-02, 00:53:04,VALID,1000.85,VALID,0,VALID,94.9414,VALID,0,VALID,24.0326,VALID,41,VALID,0.415625,
2011-11-02, 00:54:04,VALID,1000.82,VALID,0,VALID,95.0024,VALID,0,VALID,24.0716,VALID,41,VALID,0.326953,
2011-11-02, 00:55:04,VALID,1000.81,VALID,0,VALID,95.033,VALID,0,VALID,24.0716,VALID,41,VALID,0.378906,
2011-11-02, 00:56:04,VALID,1000.81,VALID,0,VALID,94.9948,VALID,0,VALID,24.0929,VALID,43,VALID,0.307031,
2011-11-02, 00:57:04,VALID,1000.77,VALID,0,VALID,94.9719,VALID,0,VALID,24.091,VALID,44,VALID,0.180469,
2011-11-02, 00:58:04,VALID,1000.75,VALID,0,VALID,94.888,VALID,0,VALID,24.0734,VALID,44,VALID,0.452734,
2011-11-02, 00:59:04,VALID,1000.72,VALID,0,VALID,94.9872,VALID,0,VALID,24.0716,VALID,44,VALID,0.515234,
2011-11-02, 01:00:04,VALID,1000.75,VALID,0,VALID,94.9796,VALID,0,VALID,24.0716,VALID,45,VALID,0.525781,
2011-11-02, 01:01:04,VALID,1000.71,VALID,0,VALID,95.0024,VALID,0,VALID,24.0716,VALID,73,VALID,0.485938,
2011-11-02, 01:02:04,VALID,1000.68,VALID,0,VALID,95.0558,VALID,0,VALID,24.091,VALID,73,VALID,0.570313,
2011-11-02, 01:03:04,VALID,1000.65,VALID,0,VALID,95.033,VALID,0,VALID,24.0892,VALID,73,VALID,0.432031,
2011-11-02, 01:04:04,VALID,1000.66,VALID,0,VALID,95.094,VALID,0,VALID,24.1105,VALID,74,VALID,0.409766,
2011-11-02, 01:05:04,VALID,1000.64,VALID,0,VALID,95.0635,VALID,0,VALID,24.13,VALID,74,VALID,0.326562,
2011-11-02, 01:06:04,VALID,1000.64,VALID,0,VALID,95.0406,VALID,0,VALID,24.13,VALID,74,VALID,0.598047,
2011-11-02, 01:07:04,VALID,1000.61,VALID,0,VALID,94.9262,VALID,0,VALID,24.1123,VALID,74,VALID,0.419141,
2011-11-02, 01:08:04,VALID,1000.61,VALID,0,VALID,95.0711,VALID,0,VALID,24.1105,VALID,74,VALID,0.600391,
2011-11-02, 01:09:04,VALID,1000.62,VALID,0,VALID,95.0024,VALID,0,VALID,24.13,VALID,74,VALID,0.439063,
2011-11-02, 01:10:04,VALID,1000.63,VALID,0,VALID,94.9033,VALID,0,VALID,24.091,VALID,74,VALID,0.517578,
2011-11-02, 01:11:04,VALID,1000.6,VALID,0,VALID,95.0482,VALID,0,VALID,24.1105,VALID,74,VALID,0.655859,
2011-11-02, 01:12:04,VALID,1000.63,VALID,0,VALID,95.155,VALID,0,VALID,24.1494,VALID,74,VALID,0.608203,
2011-11-02, 01:13:04,VALID,1000.62,VALID,0,VALID,95.0177,VALID,0,VALID,24.1513,VALID,74,VALID,0.365625,
2011-11-02, 01:14:04,VALID,1000.65,VALID,0,VALID,94.9719,VALID,0,VALID,24.1105,VALID,74,VALID,0.0253906,
2011-11-02, 01:15:04,VALID,1000.64,VALID,0,VALID,94.9796,VALID,0.0815089,VALID,24.091,VALID,74,VALID,0.142969,
2011-11-02, 01:16:04,VALID,1000.67,VALID,0,VALID,94.9948,VALID,0,VALID,24.091,VALID,74,VALID,0.053125,
2011-11-02, 01:17:04,VALID,1000.68,VALID,0,VALID,95.0101,VALID,0.0815089,VALID,24.1123,VALID,74,VALID,0.254297,
2011-11-02, 01:18:04,VALID,1000.66,VALID,0,VALID,95.0558,VALID,0,VALID,24.1123,VALID,74,VALID,0.296875,
2011-11-02, 01:19:04,VALID,1000.66,VALID,0,VALID,95.0787,VALID,0,VALID,24.1123,VALID,74,VALID,0.239063,
2011-11-02, 01:20:04,VALID,1000.64,VALID,0,VALID,95.1855,VALID,0,VALID,24.1105,VALID,74,VALID,0.228516,
2011-11-02, 01:21:04,VALID,1000.61,VALID,0,VALID,95.155,VALID,0,VALID,24.1123,VALID,74,VALID,0.45,
2011-11-02, 01:22:04,VALID,1000.61,VALID,0,VALID,95.1474,VALID,0,VALID,24.091,VALID,74,VALID,0.198828,
2011-11-02, 01:23:04,VALID,1000.61,VALID,0,VALID,95.1093,VALID,0,VALID,24.1123,VALID,74,VALID,0.163281,
2011-11-02, 01:24:04,VALID,1000.59,VALID,0,VALID,95.033,VALID,0,VALID,24.0716,VALID,74,VALID,0.2625,
2011-11-02, 01:25:04,VALID,1000.57,VALID,0,VALID,94.949,VALID,0,VALID,24.0521,VALID,74,VALID,0.240234,
2011-11-02, 01:26:04,VALID,1000.56,VALID,0,VALID,94.8041,VALID,0,VALID,23.9937,VALID,74,VALID,0.20625,
2011-11-02, 01:27:04,VALID,1000.55,VALID,0,VALID,94.8804,VALID,0,VALID,23.9955,VALID,74,VALID,0.211328,
2011-11-02, 01:28:04,VALID,1000.51,VALID,0,VALID,94.9414,VALID,0,VALID,23.9761,VALID,74,VALID,0.248437,
2011-11-02, 01:29:04,VALID,1000.51,VALID,0,VALID,95.0406,VALID,0,VALID,23.9548,VALID,74,VALID,0.257031,
2011-11-02, 01:30:04,VALID,1000.52,VALID,0,VALID,95.0711,VALID,0,VALID,23.9761,VALID,74,VALID,0.267188,
2011-11-02, 01:31:04,VALID,1000.49,VALID,0,VALID,94.9185,VALID,0,VALID,23.9353,VALID,74,VALID,0.298828,
2011-11-02, 01:32:04,VALID,1000.49,VALID,0,VALID,94.949,VALID,0,VALID,23.8964,VALID,74,VALID,0.241016,
2011-11-02, 01:33:04,VALID,1000.48,VALID,0,VALID,95.1703,VALID,0,VALID,23.9761,VALID,74,VALID,0.198047,
2011-11-02, 01:34:04,VALID,1000.49,VALID,0,VALID,95.0787,VALID,0,VALID,23.9353,VALID,74,VALID,0,
2011-11-02, 01:35:04,VALID,1000.48,VALID,0,VALID,95.1321,VALID,0,VALID,23.9353,VALID,74,VALID,0,
2011-11-02, 01:36:04,VALID,1000.48,VALID,0,VALID,95.1779,VALID,0,VALID,23.9761,VALID,74,VALID,0,
2011-11-02, 01:37:04,VALID,1000.49,VALID,0,VALID,95.2847,VALID,0,VALID,23.9955,VALID,74,VALID,0.205469,
2011-11-02, 01:38:04,VALID,1000.49,VALID,0,VALID,95.4144,VALID,0,VALID,24.0345,VALID,74,VALID,0,
2011-11-02, 01:39:04,VALID,1000.51,VALID,0,VALID,95.4144,VALID,0,VALID,24.0539,VALID,74,VALID,0.00078125,
2011-11-02, 01:40:04,VALID,1000.53,VALID,0,VALID,95.4373,VALID,0,VALID,24.0734,VALID,74,VALID,0.447656,
2011-11-02, 01:41:04,VALID,1000.51,VALID,0,VALID,95.4144,VALID,0,VALID,24.091,VALID,74,VALID,0.166016,
2011-11-02, 01:42:04,VALID,1000.53,VALID,0,VALID,95.3991,VALID,0,VALID,24.1318,VALID,74,VALID,0,
2011-11-02, 01:43:04,VALID,1000.53,VALID,0,VALID,95.4068,VALID,0,VALID,24.1105,VALID,74,VALID,0,
2011-11-02, 01:44:04,VALID,1000.52,VALID,0,VALID,95.3305,VALID,0,VALID,24.13,VALID,74,VALID,0.0667969,
2011-11-02, 01:45:04,VALID,1000.53,VALID,0,VALID,95.3839,VALID,0,VALID,24.1513,VALID,74,VALID,0,
2011-11-02, 01:46:04,VALID,1000.55,VALID,0,VALID,95.3534,VALID,0,VALID,24.1707,VALID,74,VALID,0.349219,
2011-11-02, 01:47:04,VALID,1000.53,VALID,0,VALID,95.2847,VALID,0,VALID,24.1494,VALID,74,VALID,0.158984,
2011-11-02, 01:48:04,VALID,1000.55,VALID,0,VALID,95.2313,VALID,0,VALID,24.1513,VALID,74,VALID,0.315234,
2011-11-02, 01:49:04,VALID,1000.54,VALID,0,VALID,95.3381,VALID,0,VALID,24.2097,VALID,74,VALID,0.341797,
2011-11-02, 01:50:04,VALID,1000.54,VALID,0,VALID,95.4068,VALID,0,VALID,24.2681,VALID,96,VALID,0.691016,
2011-11-02, 01:51:04,VALID,1000.52,VALID,0,VALID,95.5136,VALID,0,VALID,24.4433,VALID,122,VALID,0.841797,
2011-11-02, 01:52:04,VALID,1000.53,VALID,0,VALID,95.2237,VALID,0,VALID,24.5582,VALID,122,VALID,0.55625,
2011-11-02, 01:53:04,VALID,1000.52,VALID,0,VALID,94.621,VALID,0,VALID,24.7159,VALID,115,VALID,1.00625,
2011-11-02, 01:54:04,VALID,1000.52,VALID,0,VALID,93.7971,VALID,0,VALID,24.8503,VALID,96,VALID,0.960547,
2011-11-02, 01:55:04,VALID,1000.52,VALID,0,VALID,93.141,VALID,0,VALID,24.969,VALID,97,VALID,0.276172,
2011-11-02, 01:56:04,VALID,1000.53,VALID,0,VALID,92.6451,VALID,0,VALID,25.0079,VALID,97,VALID,0.185547,
2011-11-02, 01:57:04,VALID,1000.54,VALID,0,VALID,92.1492,VALID,0,VALID,25.0682,VALID,101,VALID,0.369141,
2011-11-02, 01:58:04,VALID,1000.53,VALID,0,VALID,91.8517,VALID,0,VALID,25.0858,VALID,101,VALID,0.300781,
2011-11-02, 01:59:04,VALID,1000.53,VALID,0,VALID,91.6229,VALID,0,VALID,25.1034,VALID,101,VALID,0.373437,
2011-11-02, 02:00:04,VALID,1000.53,VALID,0,VALID,91.7144,VALID,0,VALID,25.1442,VALID,126,VALID,0.840625,
2011-11-02, 02:01:04,VALID,1000.54,VALID,0,VALID,91.7068,VALID,0,VALID,25.2202,VALID,157,VALID,0.985937,
2011-11-02, 02:02:04,VALID,1000.54,VALID,0,VALID,91.4321,VALID,0,VALID,25.2786,VALID,100,VALID,0.444531,
2011-11-02, 02:03:04,VALID,1000.54,VALID,0,VALID,91.3558,VALID,0,VALID,25.3584,VALID,127,VALID,0.896094,
2011-11-02, 02:04:04,VALID,1000.56,VALID,0,VALID,90.9591,VALID,0,VALID,25.4363,VALID,122,VALID,0.9,
2011-11-02, 02:05:04,VALID,1000.55,VALID,0,VALID,90.5167,VALID,0,VALID,25.5123,VALID,130,VALID,0.535937,
2011-11-02, 02:06:04,VALID,1000.57,VALID,0,VALID,90.3336,VALID,0,VALID,25.5532,VALID,141,VALID,0.455859,
2011-11-02, 02:07:04,VALID,1000.56,VALID,0,VALID,90.1352,VALID,0,VALID,25.5318,VALID,138,VALID,0.278516,
2011-11-02, 02:08:04,VALID,1000.57,VALID,0,VALID,89.8148,VALID,0,VALID,25.5707,VALID,153,VALID,1.45195,
2011-11-02, 02:09:04,VALID,1000.56,VALID,0,VALID,89.5478,VALID,0,VALID,25.6506,VALID,150,VALID,1.2668,
2011-11-02, 02:10:04,VALID,1000.55,VALID,0,VALID,89.6546,VALID,0,VALID,25.67,VALID,123,VALID,0.523047,
2011-11-02, 02:11:04,VALID,1000.56,VALID,0,VALID,89.235,VALID,0,VALID,25.6895,VALID,139,VALID,0.887891,
2011-11-02, 02:12:04,VALID,1000.54,VALID,0,VALID,89.2198,VALID,0,VALID,25.6895,VALID,103,VALID,0.640625,
2011-11-02, 02:13:04,VALID,1000.54,VALID,0,VALID,88.8459,VALID,0,VALID,25.7304,VALID,158,VALID,1.14258,
2011-11-02, 02:14:04,VALID,1000.54,VALID,0,VALID,88.8459,VALID,0,VALID,25.7285,VALID,151,VALID,0.608984,
2011-11-02, 02:15:04,VALID,1000.55,VALID,0,VALID,88.7773,VALID,0,VALID,25.7285,VALID,140,VALID,0.957812,
2011-11-02, 02:16:04,VALID,1000.55,VALID,0,VALID,88.5942,VALID,0,VALID,25.7889,VALID,157,VALID,1.05,
2011-11-02, 02:17:04,VALID,1000.52,VALID,0,VALID,88.1822,VALID,0,VALID,25.7869,VALID,185,VALID,1.50937,
2011-11-02, 02:18:04,VALID,1000.56,VALID,0,VALID,87.9991,VALID,0,VALID,25.8259,VALID,190,VALID,1.98398,
2011-11-02, 02:19:04,VALID,1000.55,VALID,0,VALID,87.7245,VALID,0.0815089,VALID,25.8434,VALID,181,VALID,1.21094,
2011-11-02, 02:20:04,VALID,1000.55,VALID,0,VALID,87.8847,VALID,0.0815089,VALID,25.8434,VALID,175,VALID,1.1918,
2011-11-02, 02:21:04,VALID,1000.55,VALID,0,VALID,88.0144,VALID,0.0815089,VALID,25.8629,VALID,159,VALID,0.6625,
2011-11-02, 02:22:04,VALID,1000.57,VALID,0,VALID,87.7092,VALID,0,VALID,25.8629,VALID,149,VALID,1.88633,
2011-11-02, 02:23:04,VALID,1000.58,VALID,0,VALID,87.9839,VALID,0.0815089,VALID,25.8843,VALID,158,VALID,0.814453,
2011-11-02, 02:24:04,VALID,1000.56,VALID,0,VALID,87.5643,VALID,0.0815089,VALID,25.8629,VALID,163,VALID,1.75703,
2011-11-02, 02:25:04,VALID,1000.53,VALID,0,VALID,87.6482,VALID,0,VALID,25.8823,VALID,155,VALID,1.41172,
2011-11-02, 02:26:04,VALID,1000.54,VALID,0,VALID,87.7626,VALID,0.0815089,VALID,25.8629,VALID,176,VALID,0.974219,
2011-11-02, 02:27:04,VALID,1000.5,VALID,0,VALID,87.1905,VALID,0.0815089,VALID,25.8823,VALID,153,VALID,2.58125,
2011-11-02, 02:28:04,VALID,1000.53,VALID,0,VALID,87.3659,VALID,0,VALID,25.9018,VALID,173,VALID,1.52773,
2011-11-02, 02:29:04,VALID,1000.5,VALID,0,VALID,87.3278,VALID,0,VALID,25.9018,VALID,160,VALID,1.33281,
2011-11-02, 02:30:04,VALID,1000.49,VALID,0,VALID,87.3812,VALID,0,VALID,25.9018,VALID,156,VALID,0.957422,
2011-11-02, 02:31:04,VALID,1000.5,VALID,0,VALID,87.2744,VALID,0,VALID,25.9018,VALID,144,VALID,1.33711,
2011-11-02, 02:32:04,VALID,1000.46,VALID,0,VALID,87.0226,VALID,0,VALID,25.8823,VALID,138,VALID,1.90078,
2011-11-02, 02:33:04,VALID,1000.46,VALID,0,VALID,87.0989,VALID,0,VALID,25.9018,VALID,136,VALID,1.48008,
2011-11-02, 02:34:04,VALID,1000.44,VALID,0,VALID,87.0303,VALID,0,VALID,25.9018,VALID,112,VALID,1.03789,
2011-11-02, 02:35:04,VALID,1000.41,VALID,0,VALID,86.8777,VALID,0,VALID,25.9018,VALID,132,VALID,1.075,
2011-11-02, 02:36:04,VALID,1000.38,VALID,0,VALID,87.0532,VALID,0,VALID,25.9018,VALID,122,VALID,1.45195,
2011-11-02, 02:37:04,VALID,1000.34,VALID,0,VALID,86.9769,VALID,0,VALID,25.8823,VALID,137,VALID,1.26758,
2011-11-02, 02:38:04,VALID,1000.36,VALID,0,VALID,87.3736,VALID,0,VALID,25.8823,VALID,127,VALID,0.347656,
2011-11-02, 02:39:04,VALID,1000.32,VALID,0,VALID,87.343,VALID,0,VALID,25.8434,VALID,102,VALID,0.54375,
2011-11-02, 02:40:04,VALID,1000.3,VALID,0,VALID,87.0303,VALID,0,VALID,25.8239,VALID,147,VALID,1.20313,
2011-11-02, 02:41:04,VALID,1000.3,VALID,0,VALID,87.0684,VALID,0,VALID,25.8219,VALID,146,VALID,2.5418,
2011-11-02, 02:42:04,VALID,1000.28,VALID,0,VALID,86.8548,VALID,0,VALID,25.8648,VALID,125,VALID,2.21523,
2011-11-02, 02:43:04,VALID,1000.28,VALID,0,VALID,86.6641,VALID,0.0815089,VALID,25.8219,VALID,126,VALID,1.61133,
2011-11-02, 02:44:04,VALID,1000.3,VALID,0,VALID,86.7709,VALID,0,VALID,25.9252,VALID,148,VALID,1.11211,
2011-11-02, 02:45:04,VALID,1000.24,VALID,0,VALID,86.8853,VALID,0.0815089,VALID,25.8629,VALID,134,VALID,1.50625,
2011-11-02, 02:46:04,VALID,1000.24,VALID,0,VALID,86.8395,VALID,0,VALID,25.8843,VALID,117,VALID,1.42344,
2011-11-02, 02:47:04,VALID,1000.22,VALID,0,VALID,87.2668,VALID,0,VALID,25.8843,VALID,66,VALID,0.295312,
2011-11-02, 02:48:04,VALID,1000.23,VALID,0,VALID,87.3659,VALID,0,VALID,25.8453,VALID,74,VALID,0.394922,
2011-11-02, 02:49:04,VALID,1000.2,VALID,0,VALID,87.5338,VALID,0,VALID,25.8453,VALID,111,VALID,0.905469,
2011-11-02, 02:50:04,VALID,1000.23,VALID,0,VALID,87.5948,VALID,0.0815089,VALID,25.8434,VALID,112,VALID,1.23398,
2011-11-02, 02:51:04,VALID,1000.18,VALID,0,VALID,87.3049,VALID,0,VALID,25.8453,VALID,114,VALID,1.39023,
2011-11-02, 02:52:04,VALID,1000.15,VALID,0,VALID,87.3507,VALID,0,VALID,25.8453,VALID,146,VALID,1.75586,
2011-11-02, 02:53:04,VALID,1000.15,VALID,0,VALID,87.4727,VALID,0,VALID,25.8044,VALID,91,VALID,0.98125,
2011-11-02, 02:54:04,VALID,1000.18,VALID,0,VALID,87.2896,VALID,0,VALID,25.8259,VALID,140,VALID,1.10547,
2011-11-02, 02:55:04,VALID,1000.17,VALID,0,VALID,87.694,VALID,0,VALID,25.8259,VALID,131,VALID,0.680469,
2011-11-02, 02:56:04,VALID,1000.19,VALID,0,VALID,87.7321,VALID,0,VALID,25.8044,VALID,119,VALID,1.91602,
2011-11-02, 02:57:04,VALID,1000.21,VALID,0,VALID,87.8618,VALID,0,VALID,25.8064,VALID,96,VALID,0.801562,
2011-11-02, 02:58:04,VALID,1000.23,VALID,0,VALID,88.2661,VALID,0,VALID,25.8064,VALID,105,VALID,0.762891,
2011-11-02, 02:59:04,VALID,1000.23,VALID,0,VALID,88.2585,VALID,0,VALID,25.746,VALID,101,VALID,0.736328,
2011-11-02, 03:00:04,VALID,1000.24,VALID,0,VALID,88.4416,VALID,0,VALID,25.7285,VALID,95,VALID,0.771875,
2011-11-02, 03:01:04,VALID,1000.27,VALID,0,VALID,88.7315,VALID,0.0815089,VALID,25.6681,VALID,111,VALID,0.415625,
2011-11-02, 03:02:04,VALID,1000.29,VALID,0,VALID,88.9756,VALID,0,VALID,25.6292,VALID,91,VALID,0.753906,
2011-11-02, 03:03:04,VALID,1000.26,VALID,0,VALID,88.8459,VALID,0,VALID,25.6097,VALID,115,VALID,1.02617,
2011-11-02, 03:04:04,VALID,1000.3,VALID,0,VALID,88.7925,VALID,0,VALID,25.6311,VALID,93,VALID,0.862891,
2011-11-02, 03:05:04,VALID,1000.29,VALID,0,VALID,88.6628,VALID,0,VALID,25.6486,VALID,118,VALID,0.828125,
2011-11-02, 03:06:04,VALID,1000.28,VALID,0,VALID,88.7239,VALID,0,VALID,25.6506,VALID,114,VALID,0.417969,
2011-11-02, 03:07:04,VALID,1000.3,VALID,0,VALID,88.8078,VALID,0,VALID,25.6311,VALID,114,VALID,0.392578,
2011-11-02, 03:08:04,VALID,1000.3,VALID,0,VALID,89.0519,VALID,0,VALID,25.5902,VALID,114,VALID,0.210547,
2011-11-02, 03:09:04,VALID,1000.3,VALID,0,VALID,89.2121,VALID,0,VALID,25.6116,VALID,114,VALID,0.374219,
2011-11-02, 03:10:04,VALID,1000.29,VALID,0,VALID,89.3189,VALID,0,VALID,25.5727,VALID,114,VALID,0.592188,
2011-11-02, 03:11:04,VALID,1000.3,VALID,0,VALID,89.4028,VALID,0,VALID,25.5532,VALID,114,VALID,0.0925781,
2011-11-02, 03:12:04,VALID,1000.3,VALID,0,VALID,89.5097,VALID,0,VALID,25.5532,VALID,114,VALID,0.119531,
2011-11-02, 03:13:04,VALID,1000.3,VALID,0,VALID,89.6775,VALID,0,VALID,25.5337,VALID,114,VALID,0,
2011-11-02, 03:14:04,VALID,1000.3,VALID,0,VALID,89.8072,VALID,0,VALID,25.4948,VALID,114,VALID,0.137891,
2011-11-02, 03:15:04,VALID,1000.34,VALID,0,VALID,89.8835,VALID,0,VALID,25.4753,VALID,114,VALID,0.0328125,
2011-11-02, 03:16:04,VALID,1000.32,VALID,0,VALID,89.975,VALID,0,VALID,25.4558,VALID,114,VALID,0,
2011-11-02, 03:17:04,VALID,1000.33,VALID,0,VALID,90.0513,VALID,0,VALID,25.4363,VALID,114,VALID,0,
2011-11-02, 03:18:04,VALID,1000.33,VALID,0,VALID,90.1429,VALID,0,VALID,25.4363,VALID,114,VALID,0,
2011-11-02, 03:19:04,VALID,1000.33,VALID,0,VALID,90.1505,VALID,0,VALID,25.4363,VALID,114,VALID,0,
2011-11-02, 03:20:05,VALID,1000.35,VALID,0,VALID,90.3412,VALID,0,VALID,25.4363,VALID,114,VALID,0.233203,
2011-11-02, 03:21:05,VALID,1000.36,VALID,0,VALID,90.5243,VALID,0,VALID,25.3955,VALID,114,VALID,0.102344,
2011-11-02, 03:22:05,VALID,1000.35,VALID,0,VALID,90.7303,VALID,0,VALID,25.4169,VALID,114,VALID,0.173438,
2011-11-02, 03:23:05,VALID,1000.38,VALID,0,VALID,90.7532,VALID,0,VALID,25.3565,VALID,113,VALID,0.40625,
2011-11-02, 03:24:05,VALID,1000.41,VALID,0,VALID,90.776,VALID,0,VALID,25.3584,VALID,104,VALID,0.219531,
2011-11-02, 03:25:05,VALID,1000.43,VALID,0,VALID,90.7303,VALID,0,VALID,25.339,VALID,104,VALID,0.0574219,
2011-11-02, 03:26:05,VALID,1000.41,VALID,0,VALID,90.8752,VALID,0,VALID,25.339,VALID,104,VALID,0,
2011-11-02, 03:27:05,VALID,1000.4,VALID,0,VALID,90.8981,VALID,0,VALID,25.3195,VALID,104,VALID,0,
2011-11-02, 03:28:05,VALID,1000.42,VALID,0,VALID,91.0888,VALID,0,VALID,25.3195,VALID,104,VALID,0.217187,
2011-11-02, 03:29:05,VALID,1000.43,VALID,0,VALID,91.2262,VALID,0,VALID,25.2592,VALID,101,VALID,0.360938,
2011-11-02, 03:30:05,VALID,1000.42,VALID,0,VALID,91.3482,VALID,0,VALID,25.2611,VALID,101,VALID,0.339453,
2011-11-02, 03:31:05,VALID,1000.42,VALID,0,VALID,91.5008,VALID,0,VALID,25.263,VALID,23,VALID,0.378516,
2011-11-02, 03:32:05,VALID,1000.41,VALID,0,VALID,91.6076,VALID,0,VALID,25.2221,VALID,23,VALID,0.194531,
2011-11-02, 03:33:05,VALID,1000.39,VALID,0,VALID,91.4245,VALID,0,VALID,25.1813,VALID,23,VALID,0.169141,
2011-11-02, 03:34:05,VALID,1000.42,VALID,0,VALID,91.1575,VALID,0,VALID,25.2027,VALID,23,VALID,0.148047,
2011-11-02, 03:35:05,VALID,1000.4,VALID,0,VALID,91.2567,VALID,0,VALID,25.2007,VALID,23,VALID,0.199219,
2011-11-02, 03:36:05,VALID,1000.4,VALID,0,VALID,90.4785,VALID,0,VALID,25.2416,VALID,31,VALID,0.359375,
2011-11-02, 03:37:05,VALID,1000.4,VALID,0,VALID,90.2039,VALID,0,VALID,25.3,VALID,31,VALID,0.184766,
2011-11-02, 03:38:05,VALID,1000.39,VALID,0,VALID,89.8606,VALID,0,VALID,25.3176,VALID,31,VALID,0.129688,
2011-11-02, 03:39:05,VALID,1000.39,VALID,0,VALID,89.5249,VALID,0.0815089,VALID,25.3779,VALID,31,VALID,0.242188,
2011-11-02, 03:40:05,VALID,1000.4,VALID,0,VALID,89.3037,VALID,0,VALID,25.4169,VALID,31,VALID,0.280859,
2011-11-02, 03:41:05,VALID,1000.39,VALID,0,VALID,89.7156,VALID,0,VALID,25.3955,VALID,31,VALID,0.233984,
2011-11-02, 03:42:05,VALID,1000.4,VALID,0,VALID,89.4563,VALID,0,VALID,25.3955,VALID,31,VALID,0.135547,
2011-11-02, 03:43:05,VALID,1000.4,VALID,0,VALID,89.6622,VALID,0,VALID,25.4169,VALID,31,VALID,0.316016,
2011-11-02, 03:44:05,VALID,1000.4,VALID,0,VALID,89.975,VALID,0,VALID,25.376,VALID,31,VALID,0.321094,